伽利略0210星导航星座 (GSAT0210 (GALILEO 13))

导读 | 星芒AI

GSAT0210,也称为GALILEO 13,是欧洲伽利略卫星导航系统的一部分。该卫星由空中客车防务与航天公司制造,于2016年12月17日通过阿丽亚娜5号火箭发射。它运行在中地球轨道,主要任务是为全球用户提供高精度的定位、导航和授时服务。GALILEO 13的发射增强了伽利略系统的完整性和可靠性,使其能够与GPS等其他全球导航系统竞争。该系统由欧盟和欧洲航天局共同管理,是欧洲在独立卫星导航领域的重要成就。

基本信息
目录编号:
41550
目录名称:
GALILEO 13 (26A)
国际标识:
2016-030B
轨道中心:
EARTH
卫星名称:
伽利略0210星
卫星全名:
伽利略0210星导航星座 (GSAT0210 (GALILEO 13))
卫星状态:
在轨 (已飞行3434 天)
发射日期:
2016-05-24 UTC
国别 :
(ESA)
星等 :
--
轨道信息
数据来源 国际轨道数据
星历时间: 2025-10-16T22:54:35+0800
1天前
查看轨道信息
半长轴: 29600.39km
偏心率: 0.0002956
轨道倾角: 55.174°
近地点辐角 248.687°
升交点赤经 228.392°
平近点角 111.256°
近地点: 23213.505km
远地点: 23231.005km
周期: 844.707分钟
每日圈数: 1.704734
详细信息
平衡模式:
三轴稳定
覆盖范围:
全球
运营商:
欧盟空间计划局
运营商所在国:
法国大都会
使用方式:
暂无
卫星简介
伽利略定位系统(Galileo)是一个全球导航卫星系统,于2016年投入使用由欧盟通过ESA创建,由欧盟空间计划局(EUSPA)运营。该系统有两个地面操控站,并且在高纬度地区提供比其他系统更好的定位服务。该卫星仍在工作。
2D轨道图
3D轨道图
轨道高度分析图
轨道倾角分析图
轨道综合分析图
查看轨道综合分析图